User: anonymous   Login
Location: Caltech
(34.1382°N, 118.1253°W)
Time: 10:24:38
(UTC-07:00)
Language:

Cosmos 1758 Rocket - Orbit

View from above orbital plane
View from above orbital plane
View from above satellite
View from above satellite

Ground track
Ground track

The orbit data is extracted from the following two-line orbital elements,

1 16792U 86046B   16238.28974273  .00000074  00000-0  61182-5 0  9995
2 16792  82.4833 120.8287 0024087 183.7993 315.3038 14.83083309631028
Epoch (UTC): 25 August 2016 06:57:13
Eccentricity: 0.0024087
inclination: 82.4833°
perigee height: 603 km
apogee height: 636 km
right ascension of ascending node: 120.8287°
argument of perigee: 183.7993°
revolutions per day: 14.83083309
mean anomaly at epoch: 315.3038°
orbit number at epoch: 63102

The dashed part of the orbit path shows where the satellite is in the earth's shadow,  

DLR